Location: Beaver Meadows
(40.3729°N, 105.6140°W)
Time: 18:59:43
(UTC-06:00)

Iridium 67 - Visible Passes

Search period start: 04 May 2016 00:00
Search period end: 14 May 2016 00:00
Orbit: 776 x 779 km, 86.4° (Epoch: 04 May)

Date Brightness Start Highest point End Pass type
(mag) Time Alt. Az. Time Alt. Az. Time Alt. Az.
04 May 7.0 00:51:47 10° NNW 00:54:57 31° NW 00:54:57 31° NW visible
04 May 7.7 22:39:45 10° NE 22:41:09 12° ENE 22:41:09 12° ENE visible
05 May 6.4 00:17:59 10° N 00:21:37 45° NNW 00:21:37 45° NNW visible
05 May 6.3 23:44:30 10° N 23:48:18 45° NNE 23:48:18 45° NNE visible
06 May 7.8 01:26:55 10° NW 01:28:47 14° WNW 01:28:47 14° WNW visible
06 May 6.8 23:11:20 10° NNE 23:14:59 30° ENE 23:14:59 30° ENE visible
07 May 7.2 00:52:14 10° NNW 00:55:27 25° WNW 00:55:27 25° WNW visible
07 May 7.3 22:38:41 10° NNE 22:41:40 18° ENE 22:41:40 18° ENE visible
08 May 6.5 00:18:12 10° NNW 00:22:09 43° NW 00:22:09 43° NW visible
08 May 5.9 23:44:32 10° N 23:48:50 61° N 23:48:50 61° N visible
09 May 6.1 23:11:11 10° N 23:15:32 44° ENE 23:15:32 44° ENE visible
10 May 7.5 00:52:54 10° NW 00:56:01 19° WNW 00:56:01 19° WNW visible
10 May 6.8 22:38:11 10° NNE 22:42:14 26° ENE 22:42:14 26° ENE visible
11 May 6.7 00:18:34 10° NNW 00:22:43 34° WNW 00:22:43 34° WNW visible
11 May 7.4 22:05:55 10° NE 22:08:39 14° ENE 22:08:57 14° ENE visible
11 May 5.8 23:44:41 10° N 23:49:26 62° WNW 23:49:26 62° WNW visible
12 May 5.5 23:11:09 10° N 23:16:09 68° ENE 23:16:09 68° ENE visible
13 May 7.9 00:54:02 10° NW 00:56:24 13° WNW 00:56:38 13° W visible
13 May 6.2 22:37:54 10° NNE 22:42:43 37° E 22:42:53 37° E visible
